This is the latest recevied weather packets stored in our database for station/object KC1OEK-13. If no packets are shown the sender has not sent any weather packets the latest 10 day(s).
| Time | Temp. | Humidity | Pressure | Rain* | Wind** | Luminosity | Snow |
|---|---|---|---|---|---|---|---|
| 1778009239 | 26.11° C | 45% | 1009.6 hPa | 0 mm | - | 583 W/m² | - |
| 1778008936 | 26.11° C | 47% | 1009.5 hPa | 0 mm | - | 552 W/m² | - |
| 1778008634 | 25.56° C | 47% | 1009.4 hPa | 0 mm | - | 544 W/m² | - |
| 1778008332 | 25.56° C | 46% | 1009.5 hPa | 0 mm | - | 577 W/m² | - |
| 1778008028 | 25.56° C | 44% | 1009.5 hPa | 0 mm | - | 623 W/m² | - |
| 1778007728 | 26.67° C | 46% | 1009.8 hPa | 0 mm | - | 625 W/m² | - |
| 1778007425 | 26.11° C | 44% | 1009.7 hPa | 0 mm | - | 597 W/m² | - |
| 1778007121 | 26.67° C | 46% | 1009.7 hPa | 0 mm | - | 658 W/m² | - |
| 1778006817 | 26.11° C | 44% | 1009.9 hPa | 0 mm | - | 657 W/m² | - |
| 1778006515 | 26.11° C | 47% | 1010.1 hPa | 0 mm | - | 667 W/m² | - |
| 1778006211 | 26.11° C | 45% | 1010.1 hPa | 0 mm | - | 648 W/m² | - |
| 1778005909 | 26.11° C | 45% | 1009.9 hPa | 0 mm | - | 656 W/m² | - |
| 1778005605 | 26.11° C | 45% | 1010 hPa | 0 mm | - | 655 W/m² | - |
| 1778005303 | 26.67° C | 46% | 1010 hPa | 0 mm | - | 698 W/m² | - |
| 1778004998 | 26.11° C | 46% | 1009.9 hPa | 0 mm | - | 699 W/m² | - |
| 1778004696 | 26.67° C | 46% | 1009.9 hPa | 0 mm | - | 702 W/m² | - |
| 1778004392 | 26.67° C | 46% | 1010 hPa | 0 mm | - | 712 W/m² | - |
| 1778004090 | 27.22° C | 43% | 1009.8 hPa | 0 mm | - | 717 W/m² | - |
| 1778003785 | 26.67° C | 44% | 1009.7 hPa | 0 mm | - | 731 W/m² | - |
| 1778003482 | 27.22° C | 44% | 1010 hPa | 0 mm | - | 735 W/m² | - |
| 1778003173 | 26.11° C | 43% | 1009.9 hPa | 0 mm | - | 737 W/m² | - |
| 1778002869 | 26.67° C | 44% | 1009.9 hPa | 0 mm | - | 739 W/m² | - |
| 1778002566 | 26.11° C | 47% | 1009.9 hPa | 0 mm | - | 741 W/m² | - |
| 1778002263 | 26.67° C | 47% | 1010.1 hPa | 0 mm | - | 746 W/m² | - |
| 1778001961 | 25.56° C | 45% | 1010.3 hPa | 0 mm | - | 744 W/m² | - |
* Rain latest hour (hover to see other rain measurements)
** Current wind speed in m/s (hover to see current wind gust speed)